ITY3321 LIRF-LICC

Flight info

Callsign ITY3321
Flight time 0h 52m
Altitude 39000
Route ROTUN DCT DORAS DCT BEKIV DCT ENEPA DCT LIBRO
Aircraft A20N/M-SDE2E3FGHIJ1RWXY/LB1

Departure

Time 2026-05-05 19:01
Airport Rome–Fiumicino Leonardo da Vinci International Airport (LIRF)

Arrival

Time 2026-05-05 19:53
Airport Catania-Fontanarossa Airport (LICC)
Time Latitude Longitude Altitude Speed Heading
2026-05-05 18:36 41.79688 12.25620 14 ft 0 kts 295°
2026-05-05 18:50 41.79685 12.25628 15 ft 2 kts 295°
2026-05-05 18:51 41.79678 12.25648 17 ft 2 kts 295°
2026-05-05 18:51 41.79668 12.25666 15 ft 2 kts 356°
2026-05-05 18:51 41.79661 12.25667 16 ft 0 kts 20°
2026-05-05 18:54 41.79662 12.25667 14 ft 0 kts 20°
2026-05-05 18:55 41.79676 12.25675 15 ft 4 kts 25°
2026-05-05 18:55 41.79711 12.25701 14 ft 7 kts 29°
2026-05-05 18:55 41.79766 12.25739 14 ft 11 kts 27°
2026-05-05 18:55 41.79840 12.25794 14 ft 14 kts 33°
2026-05-05 18:56 41.79929 12.25859 14 ft 15 kts 24°
2026-05-05 18:56 41.80023 12.25917 14 ft 16 kts 25°
2026-05-05 18:56 41.80132 12.25985 14 ft 18 kts 24°
2026-05-05 18:56 41.80242 12.26051 14 ft 17 kts 24°
2026-05-05 18:57 41.80344 12.26113 14 ft 15 kts 25°
2026-05-05 18:57 41.80437 12.26165 16 ft 13 kts 16°
2026-05-05 18:57 41.80515 12.26204 17 ft 11 kts 47°
2026-05-05 18:57 41.80545 12.26301 16 ft 12 kts 70°
2026-05-05 18:58 41.80574 12.26411 16 ft 13 kts 70°
2026-05-05 18:58 41.80597 12.26490 16 ft 14 kts 69°
2026-05-05 18:58 41.80633 12.26627 17 ft 17 kts 71°
2026-05-05 18:58 41.80693 12.26840 16 ft 20 kts 70°
2026-05-05 18:59 41.80725 12.26960 13 ft 18 kts 69°
2026-05-05 18:59 41.80782 12.27042 13 ft 10 kts 13°
2026-05-05 18:59 41.80848 12.27022 13 ft 9 kts 340°
2026-05-05 18:59 41.80905 12.26995 13 ft 8 kts 340°
2026-05-05 19:00 41.80949 12.26959 13 ft 8 kts 306°
2026-05-05 19:00 41.80949 12.26896 15 ft 6 kts 253°
2026-05-05 19:00 41.80908 12.26747 13 ft 41 kts 249°
2026-05-05 19:00 41.80721 12.26077 19 ft 109 kts 250°
2026-05-05 19:01 41.80392 12.24893 19 ft 160 kts 250°
2026-05-05 19:01 41.80027 12.23403 459 ft 171 kts 249°
2026-05-05 19:01 41.79666 12.21881 1167 ft 171 kts 247°
2026-05-05 19:01 41.79255 12.20331 1656 ft 184 kts 236°
2026-05-05 19:02 41.78426 12.18981 2102 ft 190 kts 216°
2026-05-05 19:02 41.77354 12.17932 2761 ft 191 kts 212°
2026-05-05 19:02 41.76227 12.16972 3380 ft 193 kts 203°
2026-05-05 19:02 41.74902 12.16601 3922 ft 202 kts 182°
2026-05-05 19:03 41.73411 12.16767 4271 ft 227 kts 176°
2026-05-05 19:03 41.71755 12.16914 4772 ft 247 kts 178°
2026-05-05 19:03 41.70033 12.17019 5545 ft 253 kts 180°
2026-05-05 19:03 41.68260 12.17110 6434 ft 257 kts 180°
2026-05-05 19:04 41.66449 12.17192 7216 ft 263 kts 180°
2026-05-05 19:04 41.64590 12.17278 7961 ft 271 kts 179°
2026-05-05 19:04 41.62688 12.17368 8785 ft 274 kts 181°
2026-05-05 19:04 41.60771 12.17459 9623 ft 278 kts 181°
2026-05-05 19:05 41.58815 12.17552 10313 ft 287 kts 180°
2026-05-05 19:05 41.56735 12.17648 10590 ft 310 kts 181°
2026-05-05 19:05 41.54529 12.17391 10964 ft 323 kts 193°
2026-05-05 19:05 41.52283 12.16829 11595 ft 331 kts 193°
2026-05-05 19:06 41.50033 12.16279 12313 ft 335 kts 193°
2026-05-05 19:06 41.47720 12.15719 12988 ft 339 kts 193°
2026-05-05 19:06 41.45383 12.15153 13711 ft 343 kts 193°
2026-05-05 19:06 41.43024 12.14579 14366 ft 346 kts 193°
2026-05-05 19:07 41.40644 12.14002 15028 ft 349 kts 193°
2026-05-05 19:07 41.38241 12.13422 15697 ft 351 kts 193°
2026-05-05 19:07 41.35829 12.12838 16364 ft 354 kts 193°
2026-05-05 19:07 41.33378 12.12420 17008 ft 359 kts 185°
2026-05-05 19:08 41.30866 12.12653 17646 ft 366 kts 173°
2026-05-05 19:08 41.28388 12.13557 18273 ft 371 kts 165°
2026-05-05 19:08 41.25923 12.14626 18829 ft 374 kts 165°
2026-05-05 19:08 41.23437 12.15696 19355 ft 377 kts 165°
2026-05-05 19:09 41.20929 12.16766 19879 ft 380 kts 166°
2026-05-05 19:09 41.18397 12.17845 20396 ft 383 kts 166°
2026-05-05 19:09 41.15847 12.18927 20901 ft 386 kts 165°
2026-05-05 19:09 41.13275 12.20015 21391 ft 389 kts 165°
2026-05-05 19:10 41.10684 12.21111 21840 ft 393 kts 166°
2026-05-05 19:10 41.08060 12.22217 22299 ft 397 kts 166°
2026-05-05 19:10 41.05416 12.23332 22774 ft 401 kts 166°
2026-05-05 19:10 41.02781 12.24448 23227 ft 404 kts 166°
2026-05-05 19:11 41.00097 12.25588 23687 ft 407 kts 166°
2026-05-05 19:11 40.97392 12.26734 24066 ft 410 kts 166°
2026-05-05 19:11 40.94667 12.27886 24451 ft 412 kts 166°
2026-05-05 19:11 40.91917 12.29042 24825 ft 415 kts 167°
2026-05-05 19:12 40.89155 12.30204 25176 ft 418 kts 166°
2026-05-05 19:12 40.86436 12.31680 25510 ft 426 kts 160°
2026-05-05 19:12 40.83730 12.33311 25871 ft 428 kts 161°
2026-05-05 19:12 40.81013 12.34942 26240 ft 430 kts 161°
2026-05-05 19:13 40.78280 12.36580 26605 ft 433 kts 161°
2026-05-05 19:13 40.75528 12.38226 26966 ft 435 kts 161°
2026-05-05 19:13 40.72764 12.39874 27321 ft 437 kts 161°
2026-05-05 19:13 40.69984 12.41526 27649 ft 440 kts 161°
2026-05-05 19:14 40.67177 12.43191 27940 ft 443 kts 161°
2026-05-05 19:14 40.64353 12.44866 28285 ft 446 kts 161°
2026-05-05 19:14 40.61520 12.46551 28623 ft 448 kts 161°
2026-05-05 19:14 40.58669 12.48251 28966 ft 450 kts 161°
2026-05-05 19:15 40.55809 12.49953 29293 ft 453 kts 161°
2026-05-05 19:15 40.52931 12.51660 29608 ft 455 kts 161°
2026-05-05 19:15 40.50069 12.53357 29916 ft 457 kts 161°
2026-05-05 19:15 40.47160 12.55077 30204 ft 459 kts 161°
2026-05-05 19:16 40.44232 12.56807 30450 ft 461 kts 161°
2026-05-05 19:16 40.41291 12.58546 30670 ft 464 kts 161°
2026-05-05 19:16 40.38343 12.60288 30911 ft 466 kts 161°
2026-05-05 19:16 40.35376 12.62039 31159 ft 468 kts 161°
2026-05-05 19:17 40.32403 12.63789 31436 ft 469 kts 161°
2026-05-05 19:17 40.29432 12.65533 31803 ft 467 kts 161°
2026-05-05 19:17 40.26464 12.67278 32150 ft 467 kts 161°
2026-05-05 19:17 40.23545 12.68999 32507 ft 466 kts 161°
2026-05-05 19:18 40.20588 12.70743 32842 ft 465 kts 160°
2026-05-05 19:18 40.17647 12.72473 33261 ft 462 kts 160°
2026-05-05 19:18 40.14721 12.74188 33662 ft 460 kts 160°
2026-05-05 19:18 40.11807 12.75891 34041 ft 458 kts 160°
2026-05-05 19:19 40.08900 12.77589 34355 ft 457 kts 160°
2026-05-05 19:19 40.05992 12.79284 34619 ft 457 kts 160°
2026-05-05 19:19 40.03085 12.80978 34900 ft 457 kts 160°
2026-05-05 19:19 40.00174 12.82675 35035 ft 455 kts 160°
2026-05-05 19:20 39.94428 12.86017 35065 ft 449 kts 160°
2026-05-05 19:20 39.88728 12.89326 35060 ft 448 kts 160°
2026-05-05 19:21 39.83073 12.92606 35065 ft 448 kts 160°
2026-05-05 19:21 39.77372 12.95903 35065 ft 448 kts 160°
2026-05-05 19:22 39.71675 12.99198 35045 ft 447 kts 160°
2026-05-05 19:22 39.65978 13.02488 35049 ft 447 kts 160°
2026-05-05 19:23 39.60318 13.05712 35048 ft 445 kts 163°
2026-05-05 19:23 39.54406 13.07969 35050 ft 442 kts 169°
2026-05-05 19:24 39.48689 13.10941 35041 ft 449 kts 154°
2026-05-05 19:24 39.43270 13.14981 35030 ft 449 kts 154°
2026-05-05 19:25 39.37880 13.19024 35031 ft 450 kts 154°
2026-05-05 19:25 39.32446 13.23084 35035 ft 451 kts 154°
2026-05-05 19:26 39.27009 13.27131 35038 ft 451 kts 154°
2026-05-05 19:26 39.21568 13.31169 35034 ft 451 kts 154°
2026-05-05 19:27 39.16129 13.35200 35040 ft 450 kts 154°
2026-05-05 19:27 39.10692 13.39218 35043 ft 450 kts 154°
2026-05-05 19:28 39.05281 13.43212 35045 ft 450 kts 154°
2026-05-05 19:28 38.99841 13.47226 35037 ft 450 kts 154°
2026-05-05 19:29 38.94400 13.51238 35030 ft 450 kts 154°
2026-05-05 19:29 38.88993 13.55220 35033 ft 451 kts 154°
2026-05-05 19:30 38.83535 13.59216 35033 ft 451 kts 154°
2026-05-05 19:30 38.78076 13.63200 35037 ft 451 kts 154°
2026-05-05 19:31 38.72628 13.67189 35023 ft 452 kts 154°
2026-05-05 19:31 38.69884 13.69196 34428 ft 455 kts 154°
2026-05-05 19:31 38.67137 13.71203 33823 ft 453 kts 154°
2026-05-05 19:32 38.64408 13.73196 33239 ft 450 kts 154°
2026-05-05 19:32 38.61700 13.75170 32677 ft 446 kts 154°
2026-05-05 19:32 38.59037 13.77107 32122 ft 444 kts 154°
2026-05-05 19:32 38.56360 13.79052 31572 ft 441 kts 154°
2026-05-05 19:33 38.53699 13.80981 31020 ft 438 kts 154°
2026-05-05 19:33 38.51055 13.82894 30459 ft 435 kts 154°
2026-05-05 19:33 38.48425 13.84796 29913 ft 433 kts 154°
2026-05-05 19:33 38.45809 13.86689 29336 ft 429 kts 154°
2026-05-05 19:34 38.43221 13.88562 28843 ft 424 kts 154°
2026-05-05 19:34 38.40663 13.90413 28334 ft 420 kts 154°
2026-05-05 19:34 38.38138 13.92241 27847 ft 416 kts 154°
2026-05-05 19:35 38.33172 13.95829 26902 ft 408 kts 154°
2026-05-05 19:35 38.30713 13.97602 26436 ft 404 kts 154°
2026-05-05 19:35 38.28272 13.99360 25970 ft 401 kts 154°
2026-05-05 19:35 38.25852 14.01101 25515 ft 397 kts 154°
2026-05-05 19:36 38.23454 14.02826 25042 ft 395 kts 154°
2026-05-05 19:36 38.21070 14.04540 24575 ft 392 kts 154°
2026-05-05 19:36 38.18696 14.06245 24095 ft 391 kts 154°
2026-05-05 19:36 38.16329 14.07945 23613 ft 390 kts 154°
2026-05-05 19:37 38.13972 14.09635 23061 ft 388 kts 154°
2026-05-05 19:37 38.11626 14.11313 22593 ft 385 kts 154°
2026-05-05 19:37 38.09301 14.12977 22109 ft 383 kts 154°
2026-05-05 19:37 38.06985 14.14632 21631 ft 381 kts 154°
2026-05-05 19:38 38.04680 14.16278 21154 ft 379 kts 154°
2026-05-05 19:38 38.02384 14.17916 20672 ft 378 kts 154°
2026-05-05 19:38 38.00125 14.19528 20204 ft 376 kts 154°
2026-05-05 19:38 37.97847 14.21152 19709 ft 376 kts 154°
2026-05-05 19:39 37.95549 14.22762 19117 ft 379 kts 155°
2026-05-05 19:39 37.93225 14.24286 18527 ft 371 kts 156°
2026-05-05 19:39 37.90943 14.25713 17891 ft 361 kts 157°
2026-05-05 19:39 37.88704 14.27077 17251 ft 352 kts 158°
2026-05-05 19:40 37.86517 14.28402 16679 ft 342 kts 158°
2026-05-05 19:40 37.84378 14.29704 16191 ft 342 kts 158°
2026-05-05 19:40 37.82256 14.31002 15696 ft 344 kts 157°
2026-05-05 19:40 37.80124 14.32317 15203 ft 336 kts 157°
2026-05-05 19:41 37.78034 14.33618 14727 ft 336 kts 157°
2026-05-05 19:41 37.75950 14.34915 14245 ft 330 kts 157°
2026-05-05 19:41 37.73892 14.36196 13767 ft 330 kts 157°
2026-05-05 19:41 37.71820 14.37483 13236 ft 332 kts 156°
2026-05-05 19:42 37.69786 14.38749 12823 ft 320 kts 156°
2026-05-05 19:42 37.67800 14.39986 12447 ft 318 kts 156°
2026-05-05 19:42 37.65815 14.41214 12070 ft 317 kts 157°
2026-05-05 19:42 37.63835 14.42437 11697 ft 316 kts 156°
2026-05-05 19:43 37.62528 14.43244 11452 ft 315 kts 157°
2026-05-05 19:43 37.60562 14.44457 11077 ft 314 kts 156°
2026-05-05 19:43 37.58603 14.45667 10724 ft 313 kts 156°
2026-05-05 19:43 37.56041 14.47252 10246 ft 303 kts 156°
2026-05-05 19:44 37.54776 14.48037 10015 ft 297 kts 156°
2026-05-05 19:44 37.52928 14.49181 9699 ft 294 kts 156°
2026-05-05 19:44 37.51093 14.50314 9299 ft 294 kts 156°
2026-05-05 19:44 37.49274 14.51432 8845 ft 294 kts 156°
2026-05-05 19:45 37.47458 14.52547 8373 ft 287 kts 156°
2026-05-05 19:45 37.45678 14.53640 7888 ft 282 kts 155°
2026-05-05 19:45 37.44057 14.54980 7393 ft 278 kts 136°
2026-05-05 19:45 37.42990 14.56955 6913 ft 272 kts 112°
2026-05-05 19:46 37.42621 14.59246 6436 ft 266 kts 90°
2026-05-05 19:46 37.42792 14.61537 5934 ft 259 kts 84°
2026-05-05 19:46 37.42994 14.63768 5432 ft 254 kts 84°
2026-05-05 19:46 37.43188 14.65945 4978 ft 247 kts 84°
2026-05-05 19:47 37.43366 14.68052 4598 ft 238 kts 85°
2026-05-05 19:47 37.43537 14.70087 4222 ft 230 kts 84°
2026-05-05 19:47 37.43707 14.72041 4013 ft 220 kts 84°
2026-05-05 19:47 37.43874 14.73957 4009 ft 221 kts 84°
2026-05-05 19:48 37.44041 14.75878 4008 ft 221 kts 84°
2026-05-05 19:48 37.44209 14.77804 4009 ft 221 kts 84°
2026-05-05 19:48 37.44373 14.79692 3976 ft 211 kts 84°
2026-05-05 19:48 37.44531 14.81524 3726 ft 210 kts 84°
2026-05-05 19:49 37.44687 14.83320 3468 ft 203 kts 84°
2026-05-05 19:49 37.44837 14.85064 3189 ft 197 kts 85°
2026-05-05 19:49 37.44981 14.86734 2929 ft 192 kts 85°
2026-05-05 19:49 37.45123 14.88381 2684 ft 187 kts 85°
2026-05-05 19:50 37.45261 14.89989 2441 ft 181 kts 85°
2026-05-05 19:50 37.45392 14.91516 2209 ft 170 kts 85°
2026-05-05 19:50 37.45515 14.92947 1988 ft 159 kts 84°
2026-05-05 19:50 37.45628 14.94278 1785 ft 147 kts 84°
2026-05-05 19:51 37.45735 14.95524 1593 ft 141 kts 84°
2026-05-05 19:51 37.45839 14.96746 1401 ft 139 kts 84°
2026-05-05 19:51 37.45942 14.97955 1220 ft 139 kts 84°
2026-05-05 19:51 37.46044 14.99160 1049 ft 138 kts 83°
2026-05-05 19:52 37.46146 15.00359 869 ft 137 kts 83°
2026-05-05 19:52 37.46247 15.01543 689 ft 135 kts 83°
2026-05-05 19:52 37.46347 15.02714 507 ft 134 kts 82°
2026-05-05 19:52 37.46445 15.03877 318 ft 133 kts 84°
2026-05-05 19:53 37.46537 15.05013 146 ft 131 kts 81°
2026-05-05 19:53 37.46635 15.06135 49 ft 118 kts 82°
2026-05-05 19:53 37.46704 15.06942 52 ft 68 kts 84°
2026-05-05 19:53 37.46739 15.07364 52 ft 37 kts 85°
2026-05-05 19:54 37.46787 15.07632 51 ft 29 kts 65°
2026-05-05 19:54 37.46873 15.07796 52 ft 16 kts 32°
2026-05-05 19:54 37.46936 15.07726 52 ft 16 kts 264°
2026-05-05 19:54 37.46924 15.07596 52 ft 14 kts 264°
2026-05-05 19:55 37.46914 15.07479 51 ft 13 kts 264°
2026-05-05 19:55 37.46905 15.07366 51 ft 14 kts 264°
2026-05-05 19:55 37.46893 15.07234 49 ft 15 kts 264°
2026-05-05 19:55 37.46882 15.07100 51 ft 16 kts 264°
2026-05-05 19:56 37.46870 15.06964 51 ft 15 kts 264°
2026-05-05 19:56 37.46860 15.06839 51 ft 14 kts 263°
2026-05-05 19:56 37.46851 15.06726 51 ft 11 kts 264°
2026-05-05 19:56 37.46876 15.06688 50 ft 2 kts 348°
2026-05-05 19:57 37.46891 15.06687 51 ft 4 kts 354°
2026-05-05 19:57 37.46913 15.06684 49 ft 2 kts 354°
2026-05-05 19:57 37.46915 15.06683 49 ft 0 kts 354°